Simultaneous Nadir Overpasses (SNOs) Predictions

Prediction of SNOs over PacNW region [( 10.00, 139.50) to ( 22.70, 165.60)] between AQUA and NPP Satellites:

Table of predicted SNOs over PacNW region for the next 30.0 days since TLE Epoch: 6/27/2015
Index Date (AQUA) Time (AQUA) AQUA Lat,Lon Date (NPP) Time (NPP) NPP Lat,Lon Distance(km) Time Diff (sec)
1 07/01/2015 02:41:26 17.25, 161.08 07/01/2015 02:39:26 17.00, 159.82 136.65 120
2 07/09/2015 03:29:20 12.38, 149.83 07/09/2015 03:28:41 12.04, 148.28 172.87 39
3 07/17/2015 02:40:46 16.45, 161.34 07/17/2015 02:39:00 16.16, 160.01 145.83 106




NCC Satellite Simultaneous Nadir Overpasses (SNOs) Prediction Service
